Regional Weather Roundup
Issued by NWS Wilmington, NC

Current Version | Previous Version | Graphics & Text | Print | Product List | Glossary Off
Versions: 1 2 3 4 5 6 7 8 9 10 11 12 13 14 15 16 17 18 19 20 21 22 23 24 25 26 27 28 29 30 31 32 33 34 35 36 37 38 39 40 41 42 43 44 45 46 47 48 49 50

057
ASUS42 KILM 292313
RWRILM
RWRILM
REGIONAL HOURLY WEATHER ROUNDUP
NATIONAL WEATHER SERVICE WILMINGTON NC
700 PM EDT MON MAY 29 2017

NOTE: "FAIR" INDICATES FEW OR NO CLOUDS BELOW 12,000 FEET WITH NO
SIGNIFICANT WEATHER AND/OR OBSTRUCTIONS TO VISIBILITY.

...............WFO WILMINGTON COUNTY WARNING AREA...............

......COASTAL NC AND SC COUNTIES......

CITY           SKY/WX    TMP DP  RH WIND       PRES   REMARKS
WILMINGTON     SUNNY     85  69  58 SW8       29.96S
N MYRTLE BEACH SUNNY     80  73  79 SW12      29.97S
MYRTLE BEACH   MOSUNNY   81  73  78 S17       29.98R

......INLAND NC AND SC COUNTIES.......

CITY           SKY/WX    TMP DP  RH WIND       PRES   REMARKS
LUMBERTON      MOSUNNY   89  66  46 S6        29.95R HX  91
ELIZABETHTOWN  SUNNY     88  68  52 S3        29.95S HX  91
WHITEVILLE     MOSUNNY   87  68  52 SW3       29.95S HX  90
FLORENCE       SUNNY     88  67  49 SW6       29.96R HX  91
DARLINGTON     MOSUNNY   89  67  47 W6        29.96R HX  92
KINGSTREE      FAIR      88  66  48 CALM      29.96S HX  90
HARTSVILLE     FAIR      86  66  51 SW3       29.96S
BENNETTSVILLE  FAIR      90  63  40 W3        29.95S HX  90
CONWAY         FAIR      84  72  65 CALM      29.97R
GEORGETOWN     FAIR      82  70  65 S8        29.98R
MARION         FAIR      86  64  48 SW7       29.97R

....................REST OF NORTH CAROLINA......................

.........EASTERN NC.........

CITY           SKY/WX    TMP DP  RH WIND       PRES   REMARKS
CAPE HATTERAS  CLOUDY    80  71  74 SW9       29.98R
JACKSONVILLE   PTSUNNY   83  69  62 S8        29.96R
MOREHEAD CITY  SUNNY     80  72  76 SW13      29.98R
KENANSVILLE    CLOUDY    86  66  51 CALM      29.95S
NEW BERN       CLOUDY    85  69  58 S10       29.96R
ELIZABETH CITY SUNNY     78  70  76 E10       29.97R

.........CENTRAL NC.........

CITY           SKY/WX    TMP DP  RH WIND       PRES   REMARKS
RALEIGH DURHAM PTSUNNY   81  66  60 CALM      29.97S
ROCKY MOUNT    PTSUNNY   85  64  49 W7        29.96R
ROANOKE RAPIDS NOT AVBL
FAYETTEVILLE   PTSUNNY   89  66  46 E3        29.95R HX  91
HOFFMAN        SUNNY     85  66  52 N3        29.97R

.........WESTERN NC.........

CITY           SKY/WX    TMP DP  RH WIND       PRES   REMARKS
CHARLOTTE      CLOUDY    70  63  78 N13G24    30.00R
GREENSBORO     LGT RAIN  78  66  66 W8        29.99R
HICKORY        NOT AVBL
BOONE          NOT AVBL
ASHEVILLE      NOT AVBL

.....................REST OF SOUTH CAROLINA.....................

.........EASTERN SC.........

CITY           SKY/WX    TMP DP  RH WIND       PRES   REMARKS
CHARLESTON     MOSUNNY   85  70  60 S13       29.97R
BEAUFORT MCAS  SUNNY     84  76  76 S7        29.98S HX  93
HILTON HEAD    SUNNY     82  73  74 S10       29.99S

.........CENTRAL SC.........

CITY           SKY/WX    TMP DP  RH WIND       PRES   REMARKS
COLUMBIA       CLOUDY    86  68  54 NW3       29.95S THUNDER
ORANGEBURG     CLOUDY    89  68  49 SW5       29.95F HX  93
SUMTER SHAW    CLOUDY    87  67  50 NW3       29.94S HX  90

.........WESTERN SC.........

CITY           SKY/WX    TMP DP  RH WIND       PRES   REMARKS
GREENVILLE     NOT AVBL
ROCK HILL      PTSUNNY   82  65  56 W7        29.99R
ANDERSON       LGT RAIN  72  68  87 CALM      30.02R
CLEMSON        NOT AVBL
GREENWOOD      CLOUDY    74  68  81 W6        30.04R


...................COASTAL AND OFFSHORE REPORTS..................

................LOCAL PIERS AND NC RESERVE................


STATION/POSITION TIME  SKY/WX   TEMP    WIND        PRES    VSBY
                                AIR SEA DIR/SP/G
                 (UTC)          (F)     (DEG/KT/KT) (MB)    (MI)
JOHNY MRCER PIER 2242            80 79  180/ 14/ 15 1013.8R
NC RESRV MASNBRO 2145            83     210/  5     1016.0
OCEAN CREST PIER NOT AVBL
SPRINGMAID  PIER 2242                               1014.3S


................COASTAL AND OFFSHORE BUOYS................


STATION/POSITION TIME  SKY/WX   TEMP    WIND        PRES    VSBY
                                AIR SEA DIR/SP/G
                 (UTC)          (F)     (DEG/KT/KT) (MB)    (MI)
DIMNDSHOAL 41025 2250            78 78  200/ 10/ 12 1015.3R
WVE H/P(F/S)=  3/ 9 SWL H/P/D(F/S/D)=  2/ 70/ 9

CAPE LOOKOUT     2300            78     220/  8/ 10 1015.0R
ONSLOW BAY 41036 NOT AVBL
ONSLOW BAY 41064 2208            78 78  230/ 10/ 14 1015.2R
ONSLOW BAY 41159 2243               78                N/A
WVE H/P(F/S)=  3/ 6

MASNBO INL 41110 2229               77                N/A
WVE H/P(F/S)=  2/ 6

WILM HARBR 41108 2247               78                N/A
WVE H/P(F/S)=  3/ 5

27SE WRITB 41037 2208            77 78  210/  8/ 10 1014.4R
FRYING PAN 41013 2300            77 76  220/ 10/ 12 1015.3
SUNST NRSH 41024 2208            79 78  220/ 12/ 16 1014.6F
CAPRS NRSH 41029 2208            83 79  220/ 12/ 17 1014.9S
EDISTO     41004 2250            78 78  210/ 10/ 14 1015.5R
WVE H/P(F/S)=  2/ 5 SWL H/P/D(F/S/D)=  2/220/ 5



..........OFFSHORE BUOYS BEYOND 100 NM OFFSHORE...........
.....IN A TRIANGLE---HAT TO BERMUDA TO BAHAMAS TO HAT.....


STATION/POSITION TIME  SKY/WX   TEMP    WIND        PRES    VSBY
                                AIR SEA DIR/SP/G
                 (UTC)          (F)     (DEG/KT/KT) (MB)    (MI)
150E HAT   41001 2300            77 77  300/  8/ 10 1016.5
W BERMUDA  41048 2300            77 76  250/ 14/ 19 1018.1
ATLANTIC S 41049 2250            78 78  220/  8/ 10 1023.4R
WVE H/P(F/S)=  3/ 7 SWL H/P/D(F/S/D)=  3/110/ 7

E BAHAMAS  41046 2300            80 81   90/ 10/ 14 1021.4
NE BAHAMAS 41047 2250            80 80  240/  6/  6 1021.1R
WVE H/P(F/S)=  2/ 8 SWL H/P/D(F/S/D)=  2/140/ 8

120E CANVRL41010 2300            83 82  170/  4/  4 1017.5

END




USA.gov is the U.S. government's official web portal to all federal, state and local government web resources and services.